• en Belgique
  • Liste des pays
  • À 7 jours
  • Température de l'eau
  • Carte satellitaire
  • Carte météo
  • Widgets météo
  • user-avatar
    Se connecter

    Météo par heure à Hasselt

    Ce jour, 24 Novembre, Vendredi

    Heure Température Précipitation Vent Pression Humidité
    00:00 +9°C° 0 mm 3 m/s 753 mmHg 84%
    01:00 +9°C° 0,5 mm 3 m/s 753 mmHg 86%
    02:00 +9°C° 0,5 mm 3 m/s 752 mmHg 88%
    03:00 +10°C° 0,5 mm 3 m/s 751 mmHg 90%
    04:00 +10°C° 1,7 mm 3 m/s 751 mmHg 90%
    05:00 +8°C° 1,7 mm 4 m/s 751 mmHg 89%
    06:00 +8°C° 1,7 mm 5 m/s 751 mmHg 89%
    07:00 +8°C° 0,5 mm 4 m/s 751 mmHg 90%
    08:00 +8°C° 0,5 mm 4 m/s 752 mmHg 90%
    09:00 +8°C° 0,5 mm 4 m/s 753 mmHg 91%
    10:00 +9°C° 0,1 mm 3 m/s 753 mmHg 88%
    11:00 +9°C° 0,1 mm 3 m/s 754 mmHg 86%
    12:00 +9°C° 0,1 mm 3 m/s 754 mmHg 83%
    13:00 +9°C° 0 mm 2 m/s 754 mmHg 83%
    14:00 +10°C° 0 mm 1 m/s 754 mmHg 83%
    15:00 +9°C° 0 mm 0 m/s 755 mmHg 83%
    16:00 +8°C° 0 mm 0 m/s 755 mmHg 85%
    17:00 +7°C° 0 mm 0 m/s 755 mmHg 87%
    18:00 +7°C° 0 mm 0 m/s 755 mmHg 89%
    19:00 +8°C° 0,2 mm 1 m/s 755 mmHg 89%
    20:00 +8°C° 0,2 mm 1 m/s 755 mmHg 90%
    21:00 +8°C° 0,2 mm 1 m/s 754 mmHg 90%
    22:00 +7°C° 0,5 mm 2 m/s 754 mmHg 91%
    23:00 +7°C° 0,5 mm 2 m/s 754 mmHg 91%

    Demain, 25 Novembre, Samedi

    Heure Température Précipitation Vent Pression Humidité
    00:00 +7°C° 0,5 mm 2 m/s 754 mmHg 91%
    01:00 +7°C° 0,6 mm 2 m/s 753 mmHg 91%
    02:00 +7°C° 0,6 mm 3 m/s 753 mmHg 90%
    03:00 +5°C° 0,6 mm 3 m/s 752 mmHg 90%
    04:00 +5°C° 0,4 mm 3 m/s 752 mmHg 89%
    05:00 +5°C° 0,4 mm 3 m/s 752 mmHg 89%
    06:00 +5°C° 0,4 mm 3 m/s 752 mmHg 88%
    07:00 +5°C° 0,1 mm 3 m/s 753 mmHg 87%
    08:00 +5°C° 0,1 mm 3 m/s 753 mmHg 86%
    09:00 +5°C° 0,1 mm 3 m/s 753 mmHg 85%
    10:00 +5°C° 0,1 mm 3 m/s 754 mmHg 79%
    11:00 +7°C° 0,1 mm 3 m/s 755 mmHg 74%
    12:00 +7°C° 0,1 mm 4 m/s 755 mmHg 68%
    13:00 +7°C° 0,1 mm 3 m/s 756 mmHg 70%
    14:00 +7°C° 0,1 mm 3 m/s 756 mmHg 72%
    15:00 +6°C° 0,1 mm 2 m/s 756 mmHg 74%
    16:00 +5°C° 0,2 mm 3 m/s 757 mmHg 76%
    17:00 +4°C° 0,2 mm 3 m/s 758 mmHg 77%
    18:00 +4°C° 0,2 mm 3 m/s 759 mmHg 79%
    19:00 +4°C° 0,2 mm 3 m/s 759 mmHg 80%
    20:00 +4°C° 0,2 mm 3 m/s 760 mmHg 80%
    21:00 +3°C° 0,2 mm 3 m/s 760 mmHg 80%
    22:00 +3°C° 0 mm 3 m/s 761 mmHg 82%
    23:00 +2°C° 0 mm 3 m/s 761 mmHg 83%

    Après-demain, 26 Novembre, Dimanche

    Heure Température Précipitation Vent Pression Humidité
    00:00 +2°C° 0 mm 3 m/s 761 mmHg 84%
    01:00 +2°C° 0 mm 3 m/s 762 mmHg 85%
    02:00 +1°C° 0 mm 3 m/s 762 mmHg 85%
    03:00 0°C° 0 mm 4 m/s 762 mmHg 85%
    04:00 0°C° 0 mm 4 m/s 762 mmHg 85%
    05:00 0°C° 0 mm 4 m/s 763 mmHg 86%
    06:00 0°C° 0 mm 4 m/s 763 mmHg 86%
    07:00 0°C° 0,1 mm 4 m/s 763 mmHg 84%
    08:00 +1°C° 0,1 mm 5 m/s 764 mmHg 82%
    09:00 +1°C° 0,1 mm 5 m/s 764 mmHg 80%
    10:00 +2°C° 0,1 mm 5 m/s 764 mmHg 77%
    11:00 +3°C° 0,1 mm 5 m/s 764 mmHg 75%
    12:00 +5°C° 0,1 mm 5 m/s 764 mmHg 72%
    13:00 +3°C° 0,2 mm 5 m/s 764 mmHg 74%
    14:00 +3°C° 0,2 mm 5 m/s 764 mmHg 76%
    15:00 +4°C° 0,2 mm 4 m/s 765 mmHg 77%
    16:00 +3°C° 0,1 mm 4 m/s 765 mmHg 79%
    17:00 +3°C° 0,1 mm 4 m/s 765 mmHg 82%
    18:00 +1°C° 0,1 mm 4 m/s 765 mmHg 84%
    19:00 +1°C° 0,1 mm 4 m/s 766 mmHg 84%
    20:00 +1°C° 0,1 mm 4 m/s 766 mmHg 85%
    21:00 +1°C° 0,1 mm 4 m/s 766 mmHg 85%
    22:00 +1°C° 0,1 mm 4 m/s 766 mmHg 85%
    23:00 +1°C° 0,1 mm 4 m/s 766 mmHg 86%

    27 Novembre, Lundi

    Heure Température Précipitation Vent Pression Humidité
    00:00 +1°C° 0,1 mm 4 m/s 766 mmHg 86%
    01:00 +1°C° 0 mm 4 m/s 766 mmHg 85%
    02:00 +1°C° 0 mm 4 m/s 766 mmHg 85%
    03:00 +1°C° 0 mm 4 m/s 766 mmHg 85%
    04:00 +1°C° 0 mm 4 m/s 766 mmHg 84%
    05:00 +1°C° 0 mm 4 m/s 766 mmHg 83%
    06:00 0°C° 0 mm 4 m/s 766 mmHg 82%
    07:00 +1°C° 0 mm 5 m/s 766 mmHg 81%
    08:00 +1°C° 0 mm 5 m/s 765 mmHg 80%
    09:00 +2°C° 0 mm 5 m/s 765 mmHg 79%
    10:00 +3°C° 0 mm 6 m/s 764 mmHg 77%
    11:00 +3°C° 0 mm 6 m/s 764 mmHg 76%
    12:00 +4°C° 0 mm 7 m/s 763 mmHg 75%
    13:00 +4°C° 0,4 mm 7 m/s 762 mmHg 77%
    14:00 +4°C° 0,4 mm 8 m/s 762 mmHg 79%
    15:00 +4°C° 0,4 mm 8 m/s 761 mmHg 82%
    16:00 +4°C° 0,7 mm 8 m/s 761 mmHg 81%
    17:00 +4°C° 0,7 mm 8 m/s 760 mmHg 81%
    18:00 +4°C° 0,7 mm 8 m/s 760 mmHg 80%
    19:00 +4°C° 0,2 mm 8 m/s 760 mmHg 82%
    20:00 +4°C° 0,2 mm 7 m/s 760 mmHg 85%
    21:00 +4°C° 0,2 mm 6 m/s 760 mmHg 87%
    22:00 +4°C° 0,1 mm 6 m/s 759 mmHg 87%
    23:00 +5°C° 0,1 mm 5 m/s 759 mmHg 88%

    28 Novembre, Mardi

    Heure Température Précipitation Vent Pression Humidité
    00:00 +3°C° 0,1 mm 5 m/s 759 mmHg 89%
    01:00 +4°C° 0 mm 4 m/s 758 mmHg 89%
    02:00 +4°C° 0 mm 4 m/s 758 mmHg 89%
    03:00 +4°C° 0 mm 4 m/s 758 mmHg 89%
    04:00 +3°C° 0 mm 4 m/s 757 mmHg 89%
    05:00 +3°C° 0 mm 4 m/s 757 mmHg 89%
    06:00 +3°C° 0 mm 4 m/s 756 mmHg 88%
    07:00 +3°C° 0 mm 5 m/s 756 mmHg 88%
    08:00 +3°C° 0 mm 5 m/s 755 mmHg 87%
    09:00 +4°C° 0 mm 6 m/s 754 mmHg 87%
    10:00 +5°C° 0,2 mm 7 m/s 753 mmHg 85%
    11:00 +5°C° 0,2 mm 7 m/s 752 mmHg 84%
    12:00 +6°C° 0,2 mm 8 m/s 750 mmHg 82%
    13:00 +6°C° 1 mm 7 m/s 749 mmHg 83%
    14:00 +6°C° 1 mm 7 m/s 748 mmHg 83%
    15:00 +7°C° 1 mm 6 m/s 747 mmHg 83%
    16:00 +5°C° 0,2 mm 7 m/s 747 mmHg 82%
    17:00 +5°C° 0,2 mm 7 m/s 747 mmHg 80%
    18:00 +5°C° 0,2 mm 7 m/s 747 mmHg 79%
    19:00 +4°C° 0,2 mm 7 m/s 747 mmHg 79%
    20:00 +4°C° 0,2 mm 7 m/s 747 mmHg 79%
    21:00 +3°C° 0,2 mm 6 m/s 746 mmHg 79%
    22:00 +4°C° 0,1 mm 6 m/s 746 mmHg 80%
    23:00 +4°C° 0,1 mm 7 m/s 746 mmHg 82%

    29 Novembre, Mercredi

    Heure Température Précipitation Vent Pression Humidité
    00:00 +4°C° 0,1 mm 7 m/s 746 mmHg 83%
    01:00 +4°C° 0 mm 7 m/s 746 mmHg 84%
    02:00 +4°C° 0 mm 7 m/s 746 mmHg 86%
    03:00 +4°C° 0 mm 7 m/s 746 mmHg 87%
    04:00 +4°C° 0,1 mm 6 m/s 746 mmHg 88%
    05:00 +3°C° 0,1 mm 6 m/s 746 mmHg 88%
    06:00 +3°C° 0,1 mm 6 m/s 746 mmHg 89%
    07:00 +3°C° 0 mm 6 m/s 746 mmHg 89%
    08:00 +3°C° 0 mm 5 m/s 746 mmHg 88%
    09:00 +3°C° 0 mm 5 m/s 746 mmHg 88%
    10:00 +5°C° 0,2 mm 5 m/s 746 mmHg 85%
    11:00 +6°C° 0,2 mm 5 m/s 746 mmHg 83%
    12:00 +6°C° 0,2 mm 5 m/s 746 mmHg 81%
    13:00 +6°C° 0,5 mm 4 m/s 747 mmHg 81%
    14:00 +6°C° 0,5 mm 4 m/s 747 mmHg 82%
    15:00 +6°C° 0,5 mm 4 m/s 747 mmHg 83%
    16:00 +5°C° 0,2 mm 4 m/s 748 mmHg 84%
    17:00 +5°C° 0,2 mm 3 m/s 748 mmHg 85%
    18:00 +4°C° 0,2 mm 3 m/s 749 mmHg 87%
    19:00 +4°C° 0 mm 3 m/s 750 mmHg 86%
    20:00 +4°C° 0 mm 4 m/s 750 mmHg 86%
    21:00 +3°C° 0 mm 4 m/s 751 mmHg 85%
    22:00 +3°C° 0 mm 4 m/s 751 mmHg 85%
    23:00 +3°C° 0 mm 4 m/s 751 mmHg 86%
    Voir plus